Location: Melizzano
(41.1500°N, 14.5000°E)
Time: 09:15:56
(UTC+00:00)

Cosmos 1515 Rocket - Pass Details

Date: 11 May 2021
Orbit: 605 x 631 km, 82.5° (Epoch: 15 June)

Event Time Altitude Azimuth Distance (km) Brightness Sun altitude
Exits shadow 20:29:37 35° 207° (SSW) 1,010 4.4 -21.4°
Maximum altitude 20:31:22 67° 279° (W) 675 3.8 -21.6°
Drops below altitude 10° 20:35:46 10° 2° (N) 1,990 6.8 -22.1°
Sets 20:38:00 0° 6° (N) 2,896 7.7 -22.4°
